DW1183 Weather Reports


Display with metric or nautical units.
time (UTC)temp
F
wind
direction
speed
MPH
gust
MPH
rain 1hr
in
rain 24hr
in
rain mn
in
humidity
%
barometer
mb
20260831144525 83 164 0.0 0.0 0.00 0.00 0.00 90 1017.6
20260831143023 82 167 0.0 2.0 0.00 0.00 0.00 90 1017.5
20260831141522 82 169 0.0 2.0 0.00 0.00 0.00 91 1017.6
20260831140020 81 169 0.0 2.0 0.00 0.00 0.00 92 1017.5
20260831134518 81 169 0.0 1.0 0.00 0.00 0.00 92 1017.3
20260831133013 80 169 0.0 1.0 0.00 0.00 0.00 92 1017.0
20260831131511 80 169 0.0 0.0 0.00 0.00 0.00 92 1016.9
20260831130010 80 169 0.0 1.0 0.00 0.00 0.00 92 1016.6
20260831124509 80 169 0.0 1.0 0.00 0.00 0.00 92 1016.4
20260831123010 80 169 0.0 1.0 0.00 0.00 0.00 92 1016.2
20260831121506 80 169 0.0 1.0 0.00 0.00 0.00 92 1016.1
20260831120009 80 169 0.0 2.0 0.00 0.00 0.00 92 1015.9
20260831114503 80 169 0.0 2.0 0.00 0.00 0.00 91 1015.9
20260831113002 81 169 0.0 0.0 0.00 0.00 0.00 91 1016.0
20260831111605 81 169 0.0 2.0 0.00 0.00 0.00 90 1015.8
20260831110059 81 169 0.0 1.0 0.00 0.00 0.00 90 1015.7
20260831104558 82 169 0.0 2.0 0.00 0.00 0.00 90 1015.7
20260831103057 82 169 0.0 1.0 0.00 0.00 0.00 90 1016.0
20260831101557 82 169 0.0 1.0 0.00 0.00 0.00 90 1015.8
20260831100109 82 169 0.0 2.0 0.00 0.00 0.00 90 1015.8
20260831094555 82 169 0.0 0.0 0.00 0.00 0.00 90 1015.9
20260831093059 82 169 0.0 2.0 0.00 0.00 0.00 90 1015.9
20260831091554 82 169 0.0 3.0 0.00 0.00 0.00 89 1015.7
20260831090106 82 169 0.0 3.0 0.00 0.00 0.00 89 1015.6
20260831084550 82 169 1.0 5.0 0.00 0.00 0.00 89 1015.7
20260831083104 82 169 0.0 2.0 0.00 0.00 0.00 89 1015.8
20260831081558 82 169 0.0 1.0 0.00 0.00 0.00 89 1016.0
20260831080121 82 169 0.0 2.0 0.00 0.00 0.00 89 1016.2
20260831074548 82 169 0.0 5.0 0.00 0.00 0.00 88 1016.1
20260831073047 82 169 2.0 6.0 0.00 0.00 0.00 88 1016.0
20260831071548 82 169 0.0 5.0 0.00 0.00 0.00 89 1016.1
20260831070045 82 168 3.0 6.0 0.00 0.00 0.00 88 1016.3
20260831064545 82 168 2.0 3.0 0.00 0.00 0.00 88 1016.2
20260831063051 83 168 1.0 5.0 0.00 0.00 0.00 88 1016.4
20260831061544 83 168 3.0 5.0 0.00 0.00 0.00 88 1016.5
20260831060044 83 168 0.0 2.0 0.00 0.00 0.00 88 1016.4
20260831054541 83 168 1.0 5.0 0.00 0.00 0.00 87 1016.5
20260831053106 83 168 2.0 6.0 0.00 0.00 0.00 87 1016.4
20260831051539 83 168 1.0 5.0 0.00 0.00 0.00 87 1016.3
20260831050036 83 168 2.0 5.0 0.00 0.00 0.00 86 1016.2
20260831044619 83 168 1.0 6.0 0.00 0.00 0.00 85 1016.3
20260831043036 83 168 3.0 7.0 0.00 0.00 0.00 84 1016.2
20260831041536 84 167 2.0 5.0 0.00 0.00 0.00 85 1016.2
20260831040034 84 167 2.0 5.0 0.00 0.00 0.00 84 1016.1
20260831034533 84 167 2.0 5.0 0.00 0.00 0.00 83 1015.9
20260831033042 84 167 2.0 5.0 0.00 0.00 0.00 83 1015.8
20260831031536 84 167 2.0 6.0 0.00 0.00 0.00 82 1015.8
20260831030032 85 167 3.0 5.0 0.00 0.00 0.00 81 1015.6
20260831024532 85 167 3.0 5.0 0.00 0.00 0.00 81 1015.6
20260831023031 85 167 2.0 6.0 0.00 0.00 0.00 81 1015.3
20260831021531 85 167 2.0 6.0 0.00 0.00 0.00 80 1015.1
20260831020030 85 167 2.0 6.0 0.00 0.00 0.00 79 1014.9
20260831014529 86 167 2.0 6.0 0.00 0.00 0.00 80 1014.8
20260831013029 86 171 3.0 7.0 0.00 0.00 0.00 78 1014.9
20260831011530 86 142 4.0 10.0 0.00 0.00 0.00 77 1014.7
20260831010048 87 173 4.0 8.0 0.00 0.00 0.00 76 1014.7
20260831004528 88 171 4.0 8.0 0.00 0.00 0.00 74 1014.8
20260831003032 88 172 3.0 7.0 0.00 0.00 0.00 73 1014.7
20260831001527 89 155 3.0 8.0 0.00 0.00 0.00 71 1014.7
20260831000027 90 191 2.0 7.0 0.00 0.00 0.00 66 1014.8
20260830234527 90 156 3.0 8.0 0.00 0.00 0.00 67 1014.7
20260830233035 91 180 3.0 9.0 0.00 0.00 0.00 68 1014.6
20260830231526 91 167 5.0 11.0 0.00 0.00 0.00 67 1014.6
20260830230025 92 136 4.0 9.0 0.00 0.00 0.00 66 1014.6
20260830224524 92 135 4.0 10.0 0.00 0.00 0.00 65 1014.7
20260830223023 93 163 4.0 9.0 0.00 0.00 0.00 65 1014.6
20260830221522 94 141 2.0 7.0 0.00 0.00 0.00 66 1014.6
20260830220022 94 100 2.0 9.0 0.00 0.00 0.00 66 1014.6
20260830214522 94 143 2.0 7.0 0.00 0.00 0.00 66 1014.6
20260830213025 93 149 5.0 11.0 0.00 0.00 0.00 67 1014.7
20260830211518 94 187 2.0 8.0 0.00 0.00 0.00 68 1014.8
20260830210014 94 145 3.0 7.0 0.00 0.00 0.00 68 1015.0
20260830204517 94 34 2.0 8.0 0.00 0.00 0.00 68 1015.2
20260830203012 95 196 1.0 4.0 0.00 0.00 0.00 67 1015.3
20260830201502 94 161 2.0 6.0 0.00 0.00 0.00 67 1015.6
20260830200058 95 323 1.0 5.0 0.00 0.00 0.00 65 1015.7
20260830194553 94 135 1.0 5.0 0.00 0.00 0.00 67 1016.0
20260830193050 94 309 2.0 8.0 0.00 0.00 0.00 70 1016.1
20260830191544 94 335 2.0 5.0 0.00 0.00 0.00 69 1016.2
20260830190040 93 205 1.0 6.0 0.00 0.00 0.00 71 1016.6
20260830184540 93 288 2.0 5.0 0.00 0.00 0.00 71 1016.8
20260830183031 93 150 2.0 6.0 0.00 0.00 0.00 71 1017.1
20260830181527 93 154 1.0 6.0 0.00 0.00 0.00 71 1017.1
20260830180022 93 111 2.0 4.0 0.00 0.00 0.00 71 1017.5
20260830174519 91 150 0.0 3.0 0.00 0.00 0.00 71 1017.6
20260830173014 92 146 3.0 10.0 0.00 0.00 0.00 67 1017.8
20260830171511 91 153 0.0 3.0 0.00 0.00 0.00 68 1017.9
20260830170007 90 234 3.0 7.0 0.00 0.00 0.00 69 1017.8
20260830164504 90 240 1.0 4.0 0.00 0.00 0.00 71 1017.9
20260830163002 90 239 1.0 3.0 0.00 0.00 0.00 73 1018.0
20260830161619 88 239 2.0 4.0 0.00 0.00 0.00 75 1018.1
20260830160054 88 240 1.0 5.0 0.00 0.00 0.00 76 1018.1
20260830154550 87 223 1.0 6.0 0.00 0.00 0.00 77 1018.0
20260830153048 87 274 2.0 3.0 0.00 0.00 0.00 78 1018.1
20260830151543 86 183 1.0 2.0 0.00 0.00 0.00 80 1018.2
20260830150108 85 183 1.0 4.0 0.00 0.00 0.00 82 1018.2